User: anonymous   Login
Location: Vancouver
(49.2500°N, 123.1330°W)
Time: 07:55:52
(UTC-07:00)
Language:

YAOGAN 6 - Orbit

View from above orbital plane
View from above orbital plane
View from above satellite
View from above satellite

Ground track
Ground track

The orbit data is extracted from the following two-line orbital elements,

1 34839U 09021A   16127.20156021  .00002055  00000-0  84830-4 0  9992
2 34839  97.2002 188.5477 0028634 326.6218 118.4569 15.24767853390554
Epoch (UTC): 06 May 2016 04:50:14
Eccentricity: 0.0028634
inclination: 97.2002°
perigee height: 472 km
apogee height: 511 km
right ascension of ascending node: 188.5477°
argument of perigee: 326.6218°
revolutions per day: 15.24767853
mean anomaly at epoch: 118.4569°
orbit number at epoch: 39055

The dashed part of the orbit path shows where the satellite is in the earth's shadow,  

DLR